Flag for U.S.A. Weather past 2 weeks in San Jose, California, U.S.A.

Now
62 °F

Broken clouds.


Feels Like: 62 °F
Forecast: 51 / 62 °F
Wind: 12 mph from Northwest

Location: San Jose International Airport

Current Time: Apr 25, 2015 at 3:02:46 PM

Latest Report: Apr 25, 2015 at 1:53 PM


Visibility: 10 mi

Pressure: 29.98 "Hg

Humidity: 58%

Dew point: 47 °F

Location of San JoseLocation

Historic Weather in San Jose — Graph

°F

San Jose temperature yesterday

Maximum temperature yesterday: 65 °F (at 12:53 PM)
Minimum temperature yesterday: 51 °F (at 5:53 AM)
Average temperature yesterday: 58 °F

Past Weeks' High & Low Weather Summary

 TemperatureHumidityPressure
High80 °F (Apr 16, 4:53 PM)100% (Apr 25, 4:53 AM)30.33 "Hg (Apr 25, 4:53 AM)
Low46 °F (Apr 11, 6:53 AM)16% (Apr 16, 4:53 PM)29.83 "Hg (Apr 20, 6:53 PM)
Average60 °F60%29.99 "Hg
* Reported Apr 10 12:53 PM — Apr 25 12:53 PM, San Jose, Weather by CustomWeather, © 2015

Note: Actual official high and low records may vary slightly from our data, if they occured in-between our weather recording intervals... More about our weather records

Advertising

San Jose weather history for previous 24 hours

 ConditionsComfort  
Time TempWeatherWind HumidityBarometerVisibility
12:53 PM
Sat, Apr 25
60 °FMore clouds than sun.12 mph65%29.98 "Hg10 mi
11:53 AM60 °FBroken clouds.10 mph67%29.98 "Hg10 mi
10:53 AM57 °FBroken clouds.15 mph72%29.98 "Hg10 mi
9:53 AM58 °FBroken clouds.6 mph72%29.96 "Hg10 mi
8:53 AM57 °FPartly sunny.13 mph74%29.95 "Hg10 mi
7:53 AM56 °FMostly cloudy.10 mph84%29.94 "Hg10 mi
6:53 AM55 °FMostly cloudy.10 mph90%29.93 "Hg10 mi
5:53 AM56 °FMostly cloudy.9 mph97%29.92 "Hg10 mi
4:53 AM55 °FLight rain. Fog.3 mph100%29.90 "Hg6 mi
3:53 AM55 °FLight rain. Fog.6 mph96%29.90 "Hg5 mi
2:53 AM55 °FRain. Mostly cloudy.7 mph87%29.91 "Hg7 mi
1:53 AM56 °FLight rain. Overcast.8 mph81%29.94 "Hg10 mi
12:53 AM56 °FLight rain. Mostly cloudy.12 mph77%29.97 "Hg10 mi
11:53 PM
Fri, Apr 24
57 °FPassing clouds.8 mph64%29.98 "Hg10 mi
10:53 PM58 °FLight rain. Passing clouds.7 mph58%30.01 "Hg10 mi
9:53 PM58 °FPartly cloudy.3 mph56%30.03 "Hg10 mi
8:53 PM58 °FPassing clouds.6 mph56%30.03 "Hg10 mi
7:53 PM58 °FBroken clouds.9 mph50%30.03 "Hg10 mi
6:53 PM59 °FBroken clouds.9 mph46%30.02 "Hg10 mi
5:53 PM61 °FBroken clouds.15 mph41%30.01 "Hg10 mi
4:53 PM63 °FBroken clouds.10 mph39%30.00 "Hg10 mi
3:53 PM65 °FScattered clouds.16 mph37%30.01 "Hg10 mi
Weather by CustomWeather, © 2015

See weather overviewHow to use our weather pages